Location: New Plymouth
(39.0670°S, 174.0830°E)
Time: 10:52:44
(UTC+13:00)

IRAS Rocket - Pass Details

Date: 24 January 2019
Orbit: 848 x 878 km, 100.1° (Epoch: 14 February)

Event Time Altitude Azimuth Distance (km) Brightness Sun altitude
Rises 23:30:09 0° 167° (SSE) 3,488 8.0 -24.7°
Reaches altitude 10° 23:32:34 10° 168° (SSE) 2,540 7.2 -25.0°
Maximum altitude 23:38:12 77° 252° (WSW) 895 4.3 -25.6°
Enters shadow 23:39:45 49° 327° (NNW) 1,109 4.6 -25.7°
